F16-a Sea, Netherlands

11:56 AM CEST on April 24, 2017 (GMT +0200)
F16-a Sea

Weather History for EHFZ - February, 2014

Change the Weather History Date:

Saturday, February 15, 2014

  Actual Average Record
Temperature  
Mean Temperature 44 °F -  
Max Temperature 48 °F - - ()
Min Temperature 40 °F - - ()
Degree Days  
Heating Degree Days 21    
Moisture  
Dew Point 40 °F    
Average Humidity 73    
Maximum Humidity 87    
Minimum Humidity 61    
Precipitation  
Precipitation 0.00 in - - ()
Sea Level Pressure  
Sea Level Pressure 28.98 in    
Wind  
Wind Speed 47 mph ()    
Max Wind Speed 67 mph    
Max Gust Speed 81 mph    
Visibility 6.1 miles    
Events Rain    
T = Trace of Precipitation, MM = Missing Value Source: Averaged Metar Reports

Daily Weather History Graph

Daily Weather History Graph

Search for Another Location

Airport or City:

Trip Planner

Search our weather history database for the weather conditions in past years. The results will help you decide how hot, cold, wet, or windy it might be!

Date:

Astronomy

Feb. 15, 2014 Rise Set
Actual Time 8:04 AM CET 5:52 PM CET
Civil Twilight 7:27 AM CET 6:29 PM CET
Nautical Twilight 6:46 AM CET 7:11 PM CET
Astronomical Twilight 6:05 AM CET 7:52 PM CET
Moon 6:52 PM CET (2/15) 7:44 AM CET (2/15)
Length of Visible Light 11h 01m
Length of Day
9h 48m
Full, 100% of the Moon is Illuminated
Feb 15
Full
Feb 22
Last Quarter
Mar 1
New
Mar 8
First Quarter
Mar 16
Full

Hourly Weather History & Observations

Time (CET) Temp. Windchill Dew Point Humidity Pressure Visibility Wind Dir Wind Speed Gust Speed Precip Events Conditions
12:00 AM 47 °F - 44 °F 83% 28.93 in 6 mi SSE 44.7 mph - - Rain Rain
12:25 AM 48.2 °F - 44.6 °F 87% 28.91 in 6.2 mi South 58.7 mph - N/A   Mostly Cloudy
12:55 AM 48.2 °F - 44.6 °F 87% 28.88 in 6.2 mi South 51.8 mph - N/A   Partly Cloudy
1:00 AM 49 °F - 44 °F 76% 28.91 in 7 mi South 42.5 mph - -   Partly Cloudy
1:25 AM 50.0 °F - 42.8 °F 76% 28.88 in 6.2 mi South 54.1 mph - N/A   Unknown
1:55 AM 50.0 °F - 44.6 °F 82% 28.85 in 6.2 mi South 54.1 mph - N/A   Mostly Cloudy
2:00 AM 50 °F - 43 °F 69% 28.87 in 7 mi South 49.2 mph - -   Overcast
2:25 AM 50.0 °F - 42.8 °F 76% 28.85 in 6.2 mi South 57.5 mph 69.0 mph N/A   Mostly Cloudy
2:55 AM 50.0 °F - 41.0 °F 71% 28.85 in 5.6 mi SSW 62.1 mph - N/A   Mostly Cloudy
3:00 AM 50 °F - 42 °F 64% 28.87 in 5 mi SSW 51.5 mph - -   Light Haze
3:25 AM 50.0 °F - 41.0 °F 71% 28.85 in 5.0 mi SSW 63.3 mph 77.1 mph N/A   Mostly Cloudy
3:55 AM 50.0 °F - 41.0 °F 71% 28.82 in 5.6 mi South 62.1 mph - N/A   Mostly Cloudy
4:00 AM 49 °F - 41 °F 66% 28.85 in 6 mi SSW 53.7 mph - -   Light Haze
4:25 AM 50.0 °F - 41.0 °F 71% 28.82 in 5.0 mi SSW 65.6 mph - N/A   Mostly Cloudy
4:55 AM 50.0 °F - 39.2 °F 66% 28.85 in 5.0 mi SSW 64.4 mph 77.1 mph N/A   Mostly Cloudy
5:00 AM 49 °F - 40 °F 62% 28.85 in 5 mi SSW 51.5 mph - -   Light Haze
5:25 AM 48.2 °F - 39.2 °F 71% 28.85 in 5.0 mi SSW 64.4 mph - N/A   Mostly Cloudy
5:55 AM 48.2 °F - 39.2 °F 71% 28.85 in 5.0 mi SSW 65.6 mph 77.1 mph N/A   Mostly Cloudy
6:00 AM 48 °F - 40 °F 64% 28.86 in 5 mi SSW 55.9 mph - -   Light Haze
6:25 AM 48.2 °F - 39.2 °F 71% 28.85 in 5.6 mi SSW 66.7 mph 80.6 mph N/A   Mostly Cloudy
6:55 AM 48.2 °F - 39.2 °F 71% 28.85 in 5.0 mi SSW 59.8 mph - N/A   Mostly Cloudy
7:00 AM 48 °F - 40 °F 65% 28.87 in 5 mi SSW 51.5 mph - -   Light Haze
7:25 AM 48.2 °F - 39.2 °F 71% 28.85 in 5.0 mi SSW 62.1 mph - N/A   Mostly Cloudy
7:55 AM 48.2 °F - 39.2 °F 71% 28.85 in 5.6 mi SSW 65.6 mph 77.1 mph N/A   Mostly Cloudy
8:00 AM 48 °F - 39 °F 62% 28.88 in 5 mi SSW 53.7 mph - -   Light Haze
8:25 AM 48.2 °F - 39.2 °F 71% 28.85 in 5.6 mi SSW 63.3 mph - N/A   Scattered Clouds
8:55 AM 48.2 °F - 39.2 °F 71% 28.85 in 5.6 mi SSW 64.4 mph 77.1 mph N/A   Scattered Clouds
9:00 AM 47 °F - 39 °F 65% 28.89 in 6 mi SSW 53.7 mph - -   Light Haze
9:25 AM 48.2 °F - 39.2 °F 71% 28.88 in 5.6 mi SSW 64.4 mph - N/A   Mostly Cloudy
9:55 AM 48.2 °F - 39.2 °F 71% 28.88 in 6.2 mi SSW 61.0 mph 73.6 mph N/A   Partly Cloudy
10:00 AM 47 °F - 39 °F 65% 28.92 in 6 mi SSW 49.2 mph - -   Overcast
10:25 AM 48.2 °F - 39.2 °F 71% 28.91 in 6.2 mi Variable 61.0 mph 72.5 mph N/A   Scattered Clouds
10:55 AM 48.2 °F - 39.2 °F 71% 28.91 in 5.6 mi Variable 58.7 mph 72.5 mph N/A   Scattered Clouds
11:00 AM 47 °F - 39 °F 65% 28.95 in 4 mi SSW 49.2 mph - - Rain Rain Showers
11:25 AM 48.2 °F - 39.2 °F 71% 28.94 in 5.6 mi Variable 58.7 mph 70.2 mph N/A   Mostly Cloudy
11:55 AM 48.2 °F - 39.2 °F 71% 28.94 in 5.6 mi Variable 55.2 mph - N/A   Mostly Cloudy
12:00 PM 47 °F - 39 °F 65% 28.96 in 6 mi SSW 47.0 mph - -   Unknown Precipitation
12:25 PM 48.2 °F - 39.2 °F 71% 28.97 in 6.2 mi Variable 57.5 mph - N/A   Mostly Cloudy
12:55 PM 48.2 °F - 39.2 °F 71% 28.97 in 6.2 mi Variable 55.2 mph 69.0 mph N/A   Mostly Cloudy
1:00 PM 47 °F - 39 °F 64% 28.99 in 6 mi SSW 44.7 mph - -   Partly Cloudy
1:25 PM 46.4 °F 34.9 °F 39.2 °F 76% 28.97 in 5.6 mi Variable 49.5 mph - N/A   Mostly Cloudy
1:55 PM 48.2 °F - 39.2 °F 71% 29.00 in 6.2 mi Variable 47.2 mph 58.7 mph N/A   Mostly Cloudy
2:00 PM 47 °F - 39 °F 64% 29.02 in 7 mi SSW 40.3 mph - -   Overcast
2:25 PM 46.4 °F 35.1 °F 39.2 °F 76% 29.00 in 6.2 mi Variable 47.2 mph - N/A   Mostly Cloudy
2:55 PM 46.4 °F 35.1 °F 39.2 °F 76% 29.00 in 6.2 mi Variable 47.2 mph - N/A   Mostly Cloudy
3:00 PM 47 °F - 40 °F 69% 29.03 in 6 mi SSW 38.0 mph - -   Light Haze
3:25 PM 46.4 °F 35.0 °F 39.2 °F 76% 29.00 in 5.6 mi Variable 48.3 mph - N/A   Scattered Clouds
3:55 PM 46.4 °F 35.8 °F 39.2 °F 76% 29.03 in 3.7 mi SW 40.3 mph - N/A   Mostly Cloudy
4:00 PM 47 °F - 39 °F 65% 29.04 in 6 mi SW 33.6 mph - - Rain Rain
4:25 PM 46.4 °F 35.6 °F 39.2 °F 76% 29.03 in 6.2 mi Variable 42.6 mph - N/A   Scattered Clouds
4:55 PM 48.2 °F - 37.4 °F 66% 29.03 in 6.2 mi SSW 39.1 mph - N/A   Scattered Clouds
5:00 PM 47 °F - 38 °F 61% 29.05 in 10 mi SW 35.8 mph - -   Partly Cloudy
5:25 PM 46.4 °F 36.0 °F 39.2 °F 76% 29.03 in 6.2 mi SSW 39.1 mph - N/A   Mostly Cloudy
5:55 PM 46.4 °F 35.3 °F 39.2 °F 76% 29.06 in 3.7 mi SW 44.9 mph - N/A   Mostly Cloudy
6:00 PM 46 °F - 39 °F 67% 29.07 in 8 mi SW 35.8 mph - -   Unknown Precipitation
6:25 PM 46.4 °F 35.7 °F 39.2 °F 76% 29.06 in 6.2 mi SW 41.4 mph - N/A   Mostly Cloudy
6:55 PM 46.4 °F 35.5 °F 37.4 °F 71% 29.09 in 6.2 mi SW 43.7 mph - N/A   Scattered Clouds
7:00 PM 46 °F - 38 °F 65% 29.09 in 10 mi SW 35.8 mph - -   Partly Cloudy
7:25 PM 44.6 °F 33.2 °F 39.2 °F 81% 29.09 in 6.2 mi SW 41.4 mph - N/A   Partly Cloudy
7:55 PM 42.8 °F 30.5 °F 37.4 °F 81% 29.09 in 6.2 mi SW 42.6 mph - N/A   Mostly Cloudy
8:00 PM 43 °F - 38 °F 75% 29.12 in 9 mi WSW 33.6 mph - -   Overcast
8:25 PM 42.8 °F 31.0 °F 39.2 °F 87% 29.12 in 6.2 mi WSW 39.1 mph - N/A   Mostly Cloudy
8:55 PM 42.8 °F 31.4 °F 39.2 °F 87% 29.15 in 6.2 mi WSW 35.7 mph - N/A   Light Drizzle
9:00 PM 43 °F - 39 °F 79% 29.16 in 7 mi WSW 26.8 mph - - Rain Light Drizzle
9:25 PM 42.8 °F 32.1 °F 39.2 °F 87% 29.18 in 6.2 mi WSW 31.1 mph - N/A Rain Light Rain
9:55 PM 42.8 °F 32.5 °F 39.2 °F 87% 29.21 in 6.2 mi WSW 28.8 mph - N/A   Mostly Cloudy
10:00 PM 43 °F - 39 °F 81% 29.22 in 7 mi WSW 24.6 mph - - Rain Light Rain Showers
10:25 PM 42.8 °F 32.5 °F 39.2 °F 87% 29.21 in 6.2 mi WSW 28.8 mph - N/A   Mostly Cloudy
10:55 PM 42.8 °F 32.7 °F 39.2 °F 87% 29.24 in 6.2 mi WSW 27.6 mph - N/A   Mostly Cloudy
11:00 PM 44 °F - 39 °F 77% 29.26 in 11 mi WSW 22.4 mph - - Rain Rain
11:25 PM 44.6 °F 34.7 °F 39.2 °F 81% 29.24 in 6.2 mi WSW 29.9 mph - N/A   Mostly Cloudy
11:55 PM 44.6 °F 34.4 °F 39.2 °F 81% 29.27 in 6.2 mi WSW 32.2 mph - N/A   Partly Cloudy